Погода Кировский

Погода Кировский : погода сейчас, прогноз погоды и архив. Всё, что Вы хотите узнать о погоде Кировский!

Хотите узнать прогноз погоды Кировский? Тогда Вам сюда: Погода Кировский

Поиск расширенной информации на нашем сайте:

Другие новости

Новости СМИ2

Главная страница сайта

Новости сайта

03.07.2017

Напоминаем, что на нашем специализированном сайте Метеоцентр.Азия вы можете получить высокодетализированные автоматические прогнозы погоды по пунктам России, СНГ и мира в авиационном формате (включающие направление и скорость ветра, видимость, явления погоды, количество и форму облачности, нижнюю и верхнюю границу облачности).


Погода Кировский - сегодня

Время (UTC), дата Ветер
(°,м/с) 
Видим.   Явления Облачность Т
(°С)
Тd
(°С)
f(%) Тe
(°С)
Pmin
(гПа)
dP
(гПа)
Po
(мм)
O2
(г/м3)
Тmin Tmax R s Состояние
почвы
18 15.04.18 190 (Ю) 20000 м  {дождь}  ясно 
+0.5 +0.2 98 +1  1012.5  0.8  750  302           
00 16.04.18 180 (Ю) 20000 м    3/0 средняя 
[Ac trans]
+5.3 +2 79 +5  1014.4  1.3  752  297           
03 16.04.18 260 (З) 20000 м    ясно 
+10.6 -0.1 47 +9  1014.1  -0.1  752  292           
06 16.04.18 260 (З) 20000 м    3/3 1000 м 
[Cu med, cong]
+13.6 -2.8 32 +13  1013.1  -0.9  751  289           
09 16.04.18 240 (ЮЗ) 20000 м    ясно 
+13 -7.3 24 +13  1013.2  0.2  751  290    +14       
12 16.04.18 тихо ()   20000 м    ясно 
+4.3 -2.2 63 +4  1014.9  1.2  752  299           
15 16.04.18 150 (ЮВ) 20000 м    ясно 
+5.6 -3.9 50 +5  1016  1.2  753  298           
18 16.04.18 160 (Ю) 20000 м    ясно 
+6.2 -6.6 39 +5  1015.2  -0.7  752  297           
00 17.04.18 170 (Ю) 20000 м    3/0 верхняя 
[Ci fib]
+12.5 -2.5 35 +12  1013.8  -0.5  752  290           
03 17.04.18 180 (Ю) 20000 м    8/0 верхняя 
[Cc]
+19.4 -0 27 +20  1012.2  -1.3  751  282           
06 17.04.18 230 (ЮЗ) 5{13}  20000 м    8/0 верхняя 
[Cs]
+21.3 -0.7 23 +21  1009.8  -2.3  749  280           
12 17.04.18 170 (Ю) 20000 м    ясно 
+11.5 -1.2 41 +12  1012  750  290           
15 17.04.18 180 (Ю) 20000 м    ясно 
+8.9 -1 50 +10  1012.4  0.3  750  293           
18 17.04.18 160 (Ю) 20000 м    ясно 
+7.8 +0.2 59 +8  1011.2  -1.2  749  294           
00 18.04.18 170 (Ю) 20000 м    8/0 средняя, верхняя 
[Ac trans|Ci fib]
+12.2 +1 46 +13  1011  -0.1  749  289           
03 18.04.18 220 (ЮЗ) 20000 м    1/0 средняя 
[Ac trans]
+17.4 +1 33 +18  1009.3  -1.5  748  283           
06 18.04.18 280 (З) 20000 м    3/0 верхняя 
[Ci fib]
+19.3 +1.5 30 +20  1007.5  -1.7  747  281           
12 18.04.18 250 (З) 20000 м    ясно 
+10.9 +4.7 66 +12  1008.5  1.6  748  289           
15 18.04.18 тихо ()   20000 м    ясно 
+6.1 +2.8 79 +6  1009  0.3  748  294           
18 18.04.18 040 (СВ) 20000 м    ясно 
+4.9 +2.7 86 +6  1007.7  -1.3  747  295           
00 19.04.18 240 (ЮЗ) 20000 м    5/0 средняя, верхняя 
[Ac trans|Ci fib]
+10.1 +4.3 67 +10  1007.5  0.8  747  289           
03 19.04.18 250 (З) 20000 м    10/3 1000 м средняя, верхняя 
[Sc|Ac trans|Ci sp]
+13.4 +4.4 54 +13  1008.2  0.8  747  286           
06 19.04.18 270 (З) 20000 м  в посл. час дождь  10/6 1000 м средняя 
[Sc|Ac As]
+12.5 +7.6 72 +13  1008.2  747  287           
12 19.04.18 230 (ЮЗ) 20000 м  {дождь}  6/0 верхняя 
[Ci fib]
+8.1 +6.7 91 +9  1013.7  751  293           
15 19.04.18 тихо ()   4000 м  дымка  4/0 верхняя 
[Ci fib]
+5.4 +4.9 97 +5  1015.6  1.7  753  297           
Время (UTC), дата Ветер
(°,м/с) 
Видим.   Явления Облачность Т
(°С)
Тd
(°С)
f(%) Тe
(°С)
Pmin
(гПа)
dP
(гПа)
Po
(мм)
O2
(г/м3)
Тmin Tmax R s Состояние
почвы

Для получения пояснительной информации подведите курсор к названию столбца.

ПОГОДА Кировский - архив

Всё, что Вы хотите узнать о погоде Кировский - удобно и подробно!

Выберите нужную дату (начиная с 1 января 2015* года) и нажмите кнопку "Найти".
Будут отображены архивные сводки погоды по пункту Кировский, начиная с указанной даты.


Отображать данные в формате CSV (для использования в таблицах Excel)


Внимание! Наш архив погоды предназначен исключительно для личного некоммерческого использования в познавательных целях. Если Вам необходимы официальные справки о состоянии погоды (для производственных, юридических, коммерческих и т.п. целей), обращайтесь в органы Росгидромета.

*Примечание: данная дата относится к архиву по метеостанциям СССР (Россия, СНГ, Балтия).
Архив по метеостанциям Зарубежной Европы и Азии (кроме Китая) хранится 10 дней, по другим регионам земного шара (Китай, Африка, Америка, Австралия, Океания) - 1 день.

Кировский - район местоположения метеостанции


Название, широта, долгота, высота метеостанции:
Кировский 45.1°ш. 133.5°д. 98 м над ур. моря [Российская Федерация]

Дополнительная информация

В oтличие oт бoльшинства пoгoдных сайтoв мы публикуем пoдрoбную метеoинфoрмацию в детальнoм прoфессиoнальнoм фoрмате.

Характеристики температуры и влажнoсти вoздуха измеряются на высoте 2 м в тени вдали oт зданий и деревьев.
Скoрoсть ветра измеряется на высoте 10 м (на урoвне рoста челoвека скoрoсть ветра ниже в 1.5-2 раза). Если метеoстанция нахoдится в гoрoде или в лесу, тo скoрoсть ветра занижена на 2-4 м/с пo сравнению с oткрытым местoм. Скoрoсть ветра над акватoриями крупных рек и oзёр, а также на вершинах хoлмoв на 2-5 м/с выше, чем в oбычных услoвиях.
Атмoсфернoе давление в разных тoчках местнoсти мoжет значительнo oтличаться oт давления на метеoстанции, в зависимoсти oт услoвий рельефа (при пoдъёме на 10 м давление пoнижается примернo на 1 мм рт.ст.).